Date,TemperatureHighF,TemperatureAvgF,TemperatureLowF,DewpointHighF,DewpointAvgF,DewpointLowF,HumidityHigh,HumidityAvg,HumidityLow,PressureMaxIn,PressureMinIn,WindSpeedMaxMPH,WindSpeedAvgMPH,GustSpeedMaxMPH,PrecipitationSumIn
2014-1-1,20.8,18.6,16.1,16.9,15.6,13.4,91,88,84,30.32,30.16,21,12,21,0.02
2014-1-2,19.7,14.1,0.8,17.7,11.5,-2.7,92,89,85,30.45,30.11,23,12,23,0.20
2014-1-3,18.5,6.8,-11.1,14.9,2.6,-15.3,86,83,79,30.52,30.03,34,12,34,0.00
2014-1-4,33.5,27.8,18.3,30.9,22.5,14.1,94,80,73,30.03,29.92,33,14,33,0.11
2014-1-5,31.6,17.5,-2.3,29.4,15.3,-6.9,95,91,81,30.10,29.85,33,18,33,0.22
2014-1-6,-2.6,-11.0,-15.0,-6.7,-15.9,-20.4,82,78,75,30.40,30.10,30,18,30,0.00
2014-1-7,7.5,-1.7,-10.7,2.0,-7.0,-15.4,83,78,73,30.45,30.35,20,9,20,0.00
2014-1-8,14.1,6.5,-1.4,7.8,1.5,-5.3,86,79,72,30.57,30.35,8,3,8,0.11
2014-1-9,30.1,17.1,1.7,28.8,13.9,-3.2,95,87,77,30.58,30.21,15,6,15,0.04
2014-1-10,40.6,34.8,30.1,39.7,33.8,28.8,97,96,95,30.21,29.55,27,12,27,0.81
2014-1-11,39.8,34.7,30.7,39.0,32.4,27.0,98,91,83,29.84,29.45,22,12,22,0.06
2014-1-12,42.0,35.0,29.1,34.8,30.8,26.7,93,85,74,29.95,29.65,36,17,36,0.00
2014-1-13,46.5,39.8,28.5,38.6,33.7,24.8,86,79,71,29.81,29.58,28,13,28,0.00
2014-1-14,34.7,28.7,22.2,32.9,24.4,16.9,95,84,68,29.95,29.68,34,14,34,0.02
2014-1-15,22.4,18.6,15.7,16.9,13.0,10.9,84,78,71,30.14,29.95,20,11,20,0.00
2014-1-16,35.6,27.3,19.0,31.4,21.8,14.7,93,80,64,29.95,29.56,28,17,28,0.01
2014-1-17,23.3,14.7,11.7,16.0,9.8,6.3,86,81,73,30.05,29.73,18,11,18,0.02
2014-1-18,19.9,14.4,8.3,17.6,11.4,5.2,92,87,80,30.02,29.76,20,8,20,0.29
2014-1-19,40.1,24.3,8.0,31.0,20.3,5.2,91,85,69,29.96,29.60,29,14,29,0.00
2014-1-20,37.5,32.0,21.4,30.9,27.5,19.2,92,83,75,30.01,29.64,24,9,24,0.00
2014-1-21,21.3,7.1,-0.4,19.0,2.0,-5.1,91,79,67,30.33,30.00,25,11,25,0.00
2014-1-22,16.5,6.6,-2.9,13.4,1.8,-7.0,89,80,68,30.29,29.97,26,11,26,0.00
2014-1-23,5.3,-0.3,-4.0,-1.2,-7.0,-10.8,75,73,68,30.69,30.26,25,14,25,0.00
2014-1-24,26.2,10.8,-6.0,24.4,4.5,-11.3,93,76,63,30.66,29.58,39,18,39,0.00
2014-1-25,33.2,19.4,7.0,30.6,10.6,-2.4,93,69,50,29.94,29.48,48,18,48,0.01
2014-1-26,33.8,20.4,5.2,29.0,15.9,-2.0,93,82,63,29.90,29.47,40,15,40,0.29
2014-1-27,5.1,-2.3,-8.0,1.5,-9.0,-15.1,85,72,64,30.52,29.91,32,15,32,0.00
2014-1-28,6.1,-2.1,-10.5,-2.2,-9.0,-15.5,79,72,65,30.55,30.33,17,8,17,0.00
2014-1-29,24.7,13.3,1.3,11.0,3.7,-4.5,78,66,52,30.34,30.10,29,11,29,0.00
2014-1-30,33.4,25.5,18.1,29.2,18.3,8.4,93,74,54,30.11,29.71,40,21,40,0.00
2014-1-31,23.4,20.8,18.3,21.2,16.9,14.4,93,85,76,30.21,29.97,17,6,17,0.09
2014-2-1,31.2,27.6,22.9,30.1,26.2,21.2,96,94,92,30.12,29.85,13,8,13,0.64
2014-2-2,24.3,15.2,4.0,22.2,11.1,0.5,92,83,75,30.37,30.12,14,8,14,0.00
2014-2-3,18.7,4.9,-5.8,10.0,-0.3,-9.6,86,79,61,30.45,30.35,10,3,10,0.00
2014-2-4,20.3,12.9,-1.3,18.3,9.0,-5.7,92,84,71,30.48,30.08,21,8,21,0.00
2014-2-5,25.5,20.1,9.2,23.0,17.2,6.1,94,88,80,30.49,30.00,28,14,28,0.32
2014-2-6,9.4,0.9,-4.1,6.3,-4.0,-9.2,88,80,71,30.55,30.47,16,9,16,0.00
2014-2-7,9.2,1.8,-5.7,2.0,-3.8,-10.5,84,77,69,30.52,30.43,15,7,15,0.00
2014-2-8,18.0,11.5,-0.3,16.0,8.2,-4.6,92,87,76,30.43,30.18,10,4,10,0.18
2014-2-9,17.7,12.8,2.0,15.5,8.6,-2.4,91,83,74,30.35,30.16,15,7,15,0.05
2014-2-10,7.9,-0.1,-7.4,-1.4,-6.1,-11.2,85,76,61,30.57,30.35,15,9,15,0.00
2014-2-11,9.1,-3.8,-20.7,2.1,-9.1,-26.0,85,78,69,30.62,30.46,8,2,8,0.00
2014-2-12,19.8,4.1,-14.1,12.5,-0.6,-19.0,87,81,71,30.45,30.09,8,2,8,0.00
2014-2-13,32.5,15.4,-3.3,28.0,10.2,-7.3,88,80,64,30.09,29.62,29,7,29,0.00
2014-2-14,18.3,14.2,9.5,13.3,9.3,5.1,84,80,77,30.00,29.67,17,9,17,0.00
2014-2-15,16.7,10.8,2.8,14.5,5.7,-1.2,91,80,69,30.17,30.00,16,7,16,0.11
2014-2-16,24.5,20.0,16.8,17.6,15.9,13.4,91,84,72,30.32,29.99,17,6,17,0.03
2014-2-17,34.3,24.5,17.3,32.5,21.8,13.9,95,89,81,30.31,29.73,30,14,30,0.62
2014-2-18,43.6,33.5,15.3,32.6,27.5,12.0,94,79,62,30.03,29.69,30,13,30,0.00
2014-2-19,40.9,34.6,28.9,32.4,29.8,26.3,92,82,71,30.03,29.69,53,7,53,0.00
2014-2-20,49.9,37.1,32.0,49.3,35.0,29.4,98,92,81,29.95,29.27,36,13,36,0.91
2014-2-21,37.3,33.3,29.7,31.0,25.8,18.0,92,74,54,29.89,29.46,37,19,37,0.00
2014-2-22,35.4,30.7,25.8,25.1,21.7,17.6,82,69,51,30.09,29.88,17,6,17,0.00
2014-2-23,27.2,21.8,17.7,18.5,12.9,9.6,76,68,57,30.28,30.09,21,11,21,0.00
2014-2-24,25.4,19.7,14.0,13.9,10.2,7.7,77,67,51,30.35,30.26,21,10,21,0.00
2014-2-25,22.7,16.2,6.0,14.4,9.0,-1.4,85,73,63,30.29,30.20,25,12,25,0.00
2014-2-26,18.9,9.4,1.1,9.9,0.7,-5.0,76,68,55,30.31,29.75,24,14,24,0.00
2014-2-27,19.5,9.4,2.8,10.6,-2.2,-8.6,76,59,45,30.26,29.75,33,12,33,0.00
2014-2-28,31.0,18.1,2.0,20.9,10.0,-3.7,81,71,52,30.27,30.04,22,10,22,0.00
2014-3-1,30.5,23.5,14.3,25.7,18.6,10.9,91,81,65,30.35,30.04,15,9,15,0.00
2014-3-2,14.1,9.6,3.1,11.0,3.7,-6.8,88,77,62,30.47,30.34,17,12,17,0.00
2014-3-3,17.8,8.4,-1.8,6.8,-0.4,-10.3,79,67,56,30.58,30.42,13,5,13,0.00
2014-3-4,28.8,17.2,10.1,15.3,9.4,4.2,83,72,53,30.42,30.23,13,4,13,0.00
2014-3-5,22.6,19.2,12.7,19.6,15.7,8.2,91,86,76,30.47,30.27,16,8,16,0.03
2014-3-6,29.4,20.6,12.9,20.2,14.8,9.8,88,78,64,30.45,30.14,18,5,18,0.00
2014-3-7,45.0,30.9,11.9,34.6,25.0,9.3,91,79,60,30.14,29.93,15,4,15,0.00
2014-3-8,37.8,29.6,21.6,33.3,26.2,18.7,94,87,81,30.30,29.99,24,9,24,0.01
2014-3-9,40.0,31.4,20.8,34.8,26.9,18.4,93,84,74,30.30,29.89,23,10,23,0.00
2014-3-10,54.5,44.5,36.2,46.2,38.0,32.8,91,78,68,29.89,29.69,23,11,23,0.00
2014-3-11,49.1,40.1,34.7,43.4,36.4,32.1,94,87,74,29.72,29.63,25,9,25,0.00
2014-3-12,35.3,27.0,15.8,33.0,23.9,12.4,96,88,76,30.16,29.63,25,12,25,0.44
2014-3-13,37.9,26.0,11.7,33.4,21.7,8.4,89,84,72,30.21,29.92,26,11,26,0.01
2014-3-14,54.9,44.0,37.3,42.5,35.2,32.1,82,72,50,29.92,29.65,34,17,34,0.00
2014-3-15,43.7,36.0,28.6,34.2,29.4,24.0,86,77,60,30.25,29.90,24,11,24,0.00
2014-3-16,29.9,25.0,20.0,25.3,16.7,11.5,86,71,56,30.33,30.18,34,21,34,0.00
2014-3-17,36.9,26.1,15.0,28.4,19.2,9.6,88,75,60,30.19,29.85,14,9,14,0.00
2014-3-18,50.4,38.6,27.9,41.1,33.3,24.9,90,82,68,29.92,29.67,26,10,26,0.00
2014-3-19,46.0,40.4,33.8,44.3,37.1,26.8,95,88,75,30.04,29.59,26,14,26,0.58
2014-3-20,47.0,37.9,30.6,37.0,30.7,26.6,88,76,57,30.09,30.01,20,6,20,0.00
2014-3-21,59.0,45.7,31.9,47.5,37.8,29.6,92,75,55,30.05,29.70,25,10,25,0.00
2014-3-22,43.2,37.2,29.9,36.2,29.7,25.5,89,75,60,30.32,29.86,28,11,28,0.00
2014-3-23,32.6,26.9,21.0,27.6,17.7,12.7,90,69,50,30.45,30.31,20,10,20,0.00
2014-3-24,35.6,27.6,19.4,20.1,16.6,12.2,87,65,40,30.41,30.13,15,4,15,0.00
2014-3-25,30.2,26.4,21.1,25.5,16.6,10.4,91,67,46,30.29,30.03,23,13,23,0.06
2014-3-26,39.3,28.8,17.2,24.2,16.6,10.7,78,61,45,30.39,30.06,30,9,30,0.00
2014-3-27,51.9,41.4,34.1,48.1,35.3,21.7,93,80,55,30.06,29.49,43,22,43,0.36
2014-3-28,54.1,41.1,34.5,50.3,36.9,30.6,94,85,76,30.20,29.50,41,13,41,0.00
2014-3-29,39.5,33.9,27.4,35.0,29.8,19.4,93,85,68,30.28,30.14,22,10,22,0.00
2014-3-30,55.3,39.6,24.6,37.4,29.0,18.4,85,67,45,30.29,30.09,18,5,18,0.00
2014-3-31,66.8,52.1,36.6,42.6,37.3,31.9,85,60,33,30.09,29.76,31,15,31,0.01
2014-4-1,57.5,45.5,34.4,44.8,32.3,23.6,79,60,47,30.09,29.72,33,17,33,0.00
2014-4-2,47.8,40.3,31.9,36.3,32.5,27.9,89,74,62,30.17,30.04,23,10,23,0.02
2014-4-3,43.0,40.2,36.3,40.6,38.5,32.6,97,94,86,30.04,29.68,27,14,27,1.47
2014-4-4,46.3,39.6,36.8,45.4,35.4,28.8,98,86,71,30.04,29.50,40,16,40,0.00
2014-4-5,51.4,40.8,32.7,33.5,30.1,27.1,80,67,42,30.24,30.04,20,5,20,0.00
2014-4-6,56.4,43.3,31.0,37.7,32.3,24.9,82,66,45,30.19,29.95,16,4,16,0.00
2014-4-7,51.7,43.3,33.3,38.9,34.0,29.3,89,71,51,29.95,29.62,24,7,24,0.00
2014-4-8,57.4,48.2,38.7,49.1,41.4,33.7,91,78,59,29.93,29.65,18,7,18,0.03
2014-4-9,61.8,49.3,32.6,43.5,35.2,29.8,93,63,31,30.05,29.90,20,8,20,0.00
2014-4-10,62.3,55.4,48.4,49.1,41.3,30.8,68,59,46,29.95,29.71,30,13,30,0.00
2014-4-11,69.5,55.9,39.7,40.6,32.1,26.1,69,43,20,30.05,29.94,15,5,15,0.00
2014-4-12,77.3,63.0,42.6,58.7,48.6,32.5,83,60,42,30.03,29.69,33,14,33,0.03
2014-4-13,69.6,64.6,61.4,61.2,58.0,54.3,94,79,69,29.74,29.45,38,17,38,0.23
2014-4-14,63.8,43.3,30.7,60.2,40.6,29.2,96,90,80,30.00,29.37,35,16,35,0.07
2014-4-15,38.3,31.5,25.5,29.4,22.9,17.1,94,72,45,30.25,29.99,22,8,22,0.02
2014-4-16,52.4,39.7,25.1,32.4,27.6,21.8,89,64,41,30.35,30.16,31,14,31,0.00
2014-4-17,62.9,50.3,34.1,43.5,36.9,28.7,82,61,45,30.27,30.17,22,10,22,0.00
2014-4-18,61.4,49.6,35.2,45.2,40.2,30.0,90,71,51,30.36,30.23,24,8,24,0.00
2014-4-19,69.5,50.9,30.8,42.7,36.5,27.1,91,62,33,30.38,30.22,16,8,16,0.00
2014-4-20,77.3,59.5,38.6,47.0,40.5,31.5,77,53,29,30.25,30.03,18,8,18,0.00
2014-4-21,76.9,62.2,48.8,59.5,51.7,42.3,96,71,47,30.03,29.80,31,8,31,0.41
2014-4-22,59.0,51.1,35.3,57.5,40.4,30.4,96,68,39,30.08,29.79,21,12,21,0.01
2014-4-23,56.2,42.9,30.8,35.9,31.9,27.6,90,67,39,30.19,30.03,18,9,18,0.05
2014-4-24,66.1,54.0,39.8,44.9,40.1,35.6,89,62,37,30.06,29.64,31,14,31,0.03
2014-4-25,70.3,57.6,47.9,49.8,44.2,37.5,94,65,32,29.84,29.58,23,10,23,0.21
2014-4-26,56.3,49.5,38.1,47.0,39.3,33.1,86,69,52,30.00,29.83,26,13,26,0.00
2014-4-27,70.5,53.7,38.8,48.9,40.9,35.0,87,64,40,30.03,29.79,32,19,32,0.06
2014-4-28,56.1,50.5,45.5,52.3,46.9,39.8,96,87,74,29.83,29.51,35,20,35,0.50
2014-4-29,64.6,55.2,49.2,58.9,49.8,43.4,98,83,57,29.68,29.47,29,11,29,0.27
2014-4-30,51.6,48.0,44.9,49.4,44.2,38.1,95,87,70,29.83,29.68,21,9,21,0.08
2014-5-1,48.8,45.7,42.5,44.7,42.0,39.5,93,87,77,29.86,29.74,27,14,27,0.09
2014-5-2,52.3,48.6,45.2,46.9,43.8,42.6,92,84,72,29.86,29.73,21,12,21,0.01
2014-5-3,67.3,57.5,45.1,46.4,42.1,37.8,87,59,36,29.88,29.70,26,12,26,0.00
2014-5-4,58.9,53.5,45.4,43.6,36.5,25.0,65,53,32,30.07,29.88,20,10,20,0.00
2014-5-5,65.8,52.4,42.8,43.6,38.4,30.5,83,60,40,30.05,29.86,24,15,24,0.01
2014-5-6,74.0,57.7,38.5,45.6,40.4,35.5,90,57,32,29.99,29.81,26,15,26,0.00
2014-5-7,86.6,70.5,51.8,65.4,54.2,38.1,68,57,46,29.85,29.74,30,14,30,0.00
2014-5-8,90.7,77.5,65.1,66.8,61.2,54.5,80,60,30,29.86,29.75,32,15,32,0.00
2014-5-9,75.3,67.1,54.7,67.6,59.0,46.9,96,77,48,29.88,29.69,29,15,29,1.12
2014-5-10,75.5,62.0,47.7,52.8,47.6,42.1,93,63,33,29.98,29.87,13,4,13,0.00
2014-5-11,83.7,67.9,55.7,66.5,57.9,46.0,95,72,49,29.97,29.80,34,10,34,0.99
2014-5-12,84.1,73.6,63.1,73.2,68.3,61.6,98,84,66,29.92,29.80,29,14,29,0.06
2014-5-13,70.9,60.0,52.4,67.6,57.2,47.8,98,90,82,30.15,29.84,20,9,20,0.33
2014-5-14,55.7,50.6,42.8,48.3,45.2,41.2,94,82,69,30.17,29.95,21,11,21,0.10
2014-5-15,53.6,46.1,42.6,46.2,42.1,38.8,96,87,69,30.06,29.85,29,13,29,0.16
2014-5-16,43.5,41.6,40.4,41.0,38.9,37.6,94,90,85,30.13,29.98,24,11,24,0.31
2014-5-17,58.6,48.9,38.0,43.9,37.6,33.0,94,68,40,30.21,30.10,18,6,18,0.00
2014-5-18,66.6,54.8,41.1,47.0,42.0,36.1,88,64,42,30.28,30.19,22,6,22,0.00
2014-5-19,69.8,58.5,43.3,50.2,46.2,40.1,92,66,44,30.25,29.94,27,10,27,0.00
2014-5-20,84.5,72.6,58.4,68.3,61.4,49.1,83,69,55,30.00,29.80,21,12,21,0.00
2014-5-21,87.8,77.5,68.9,69.3,63.2,55.6,89,64,35,29.90,29.76,20,8,20,0.00
2014-5-22,74.6,64.2,51.6,56.7,53.0,48.1,88,68,41,30.11,29.90,21,7,21,0.00
2014-5-23,72.1,59.3,46.5,55.4,48.9,42.8,94,71,46,30.19,30.09,18,6,18,0.00
2014-5-24,76.3,60.4,41.7,53.5,47.5,39.3,95,67,33,30.24,30.10,16,4,16,0.00
2014-5-25,83.0,69.0,49.5,58.1,52.5,46.1,93,60,33,30.14,30.00,30,6,30,0.00
2014-5-26,88.6,73.5,59.4,68.8,62.8,54.8,96,72,45,30.04,29.86,27,7,27,0.38
2014-5-27,83.5,73.5,65.1,71.4,66.6,62.6,95,80,58,29.94,29.84,20,8,20,0.00
2014-5-28,82.2,67.5,55.7,71.8,62.5,51.5,98,85,67,30.01,29.89,22,8,22,0.00
2014-5-29,82.7,67.5,55.6,69.3,60.3,52.2,95,79,57,30.09,29.99,22,10,22,0.00
2014-5-30,85.0,69.3,54.0,61.9,56.2,51.6,95,67,35,30.15,30.06,21,9,21,0.00
2014-5-31,88.5,74.1,55.5,59.8,55.2,52.0,91,57,30,30.16,30.02,24,8,24,0.00
2014-6-1,89.7,75.5,59.6,68.3,61.7,53.3,85,64,44,30.06,29.88,38,11,38,0.00
2014-6-2,85.2,77.1,71.0,70.6,66.8,62.1,90,72,49,29.92,29.78,37,16,37,0.00
2014-6-3,83.3,75.4,67.5,66.9,57.8,48.9,86,57,34,29.95,29.84,23,9,23,0.00
2014-6-4,68.3,62.6,55.2,62.0,58.8,53.8,97,88,61,29.89,29.71,27,10,27,0.49
2014-6-5,76.4,63.2,51.4,58.4,52.2,47.1,97,71,40,29.98,29.89,15,6,15,0.00
2014-6-6,82.3,67.3,49.7,60.2,51.2,43.8,91,60,33,30.00,29.92,13,4,13,0.00
2014-6-7,83.8,70.4,54.4,62.9,55.2,47.3,93,62,37,29.99,29.76,20,6,20,0.19
2014-6-8,72.0,62.7,55.0,63.8,56.2,48.6,95,80,65,30.02,29.74,28,13,28,0.24
2014-6-9,80.6,66.1,49.9,64.6,56.3,46.9,91,73,45,30.01,29.86,15,6,15,0.00
2014-6-10,67.4,62.5,58.4,64.3,59.9,54.5,98,91,82,29.89,29.68,20,10,20,0.69
2014-6-11,72.3,66.1,62.6,66.5,63.4,59.9,98,91,79,29.74,29.63,16,8,16,0.17
2014-6-12,80.8,69.8,61.3,69.0,62.8,56.3,94,79,58,29.85,29.72,23,9,23,0.00
2014-6-13,73.3,63.5,53.9,56.6,47.5,37.3,81,59,28,30.03,29.85,18,8,18,0.00
2014-6-14,77.3,64.7,49.6,52.6,48.3,44.3,87,59,35,30.12,29.96,20,7,20,0.00
2014-6-15,84.2,71.8,53.6,70.4,60.4,49.1,87,69,52,30.00,29.81,34,14,34,0.00
2014-6-16,88.3,78.0,66.0,71.7,68.1,63.2,92,73,51,30.05,29.87,17,8,17,0.00
2014-6-17,91.0,82.3,75.3,75.8,71.8,68.9,82,71,57,29.93,29.80,33,14,33,0.00
2014-6-18,88.3,76.2,63.8,76.4,69.7,61.7,94,81,56,29.98,29.79,33,9,33,0.10
2014-6-19,84.3,72.4,63.5,76.7,68.8,62.0,97,89,71,30.06,29.95,28,7,28,1.10
2014-6-20,83.8,74.9,67.1,73.5,69.8,65.5,98,85,62,30.03,29.88,16,7,16,0.78
2014-6-21,83.8,68.9,63.2,74.4,66.0,62.0,99,91,67,29.98,29.81,32,7,32,0.16
2014-6-22,84.8,74.0,61.8,73.7,68.5,60.9,98,84,59,29.90,29.81,15,3,15,0.00
2014-6-23,83.5,75.6,70.0,76.6,71.0,65.0,97,86,68,29.85,29.76,32,5,32,0.46
2014-6-24,82.1,73.8,68.6,74.4,70.1,65.2,97,89,75,29.88,29.80,25,5,25,0.53
2014-6-25,83.5,70.6,61.4,73.4,66.5,60.2,98,88,61,30.04,29.86,36,6,36,0.25
2014-6-26,80.8,68.8,60.6,71.3,65.0,60.0,98,89,69,30.07,29.95,12,6,12,0.00
2014-6-27,86.4,75.6,63.2,73.4,68.6,62.3,98,80,55,30.01,29.94,18,7,18,0.00
2014-6-28,85.5,77.0,70.1,76.3,71.5,67.6,95,84,66,30.02,29.90,25,10,25,0.04
2014-6-29,85.7,77.4,68.9,75.2,71.5,66.8,93,83,67,29.97,29.85,20,12,20,0.16
2014-6-30,84.8,75.2,63.6,78.1,71.4,62.4,97,88,75,29.92,29.60,46,11,46,1.66
2014-7-1,82.1,73.9,64.4,69.3,65.8,63.1,98,78,54,29.81,29.62,26,12,26,0.06
2014-7-2,71.3,66.7,59.6,65.5,59.7,55.8,93,79,61,30.00,29.77,20,8,20,0.00
2014-7-3,74.7,64.2,56.7,60.6,55.9,50.3,97,77,47,30.19,30.00,15,6,15,0.11
2014-7-4,78.8,67.5,54.2,64.3,55.7,50.6,93,68,42,30.29,30.19,12,3,12,0.00
2014-7-5,78.1,68.1,53.9,64.2,58.3,51.1,95,73,50,30.26,30.05,20,6,20,0.00
2014-7-6,85.7,74.5,62.0,75.0,67.7,58.8,91,80,61,30.06,29.74,26,11,26,0.00
2014-7-7,87.2,78.5,70.8,75.7,70.5,66.7,96,78,57,29.75,29.67,17,8,17,0.35
2014-7-8,81.0,75.0,68.4,72.4,65.4,60.3,95,73,51,29.82,29.57,31,12,31,0.12
2014-7-9,78.5,69.9,59.8,65.4,60.2,55.6,90,73,52,30.04,29.82,16,7,16,0.00
2014-7-10,79.1,67.4,54.1,62.4,57.4,51.6,97,73,49,30.17,30.04,13,3,13,0.02
2014-7-11,80.9,68.9,51.0,65.7,58.9,48.9,96,73,46,30.21,30.07,14,4,14,0.00
2014-7-12,80.2,73.6,67.4,76.6,70.2,63.7,97,89,81,30.11,29.85,20,9,20,1.00
2014-7-13,83.7,76.0,70.4,74.7,69.1,63.8,96,80,52,29.93,29.83,20,8,20,0.25
2014-7-14,79.5,70.9,62.7,71.7,62.5,53.9,96,76,49,29.88,29.75,33,7,33,0.45
2014-7-15,68.6,61.3,54.3,57.5,53.6,50.3,90,77,60,29.96,29.84,20,10,20,0.00
2014-7-16,71.7,62.3,54.2,58.4,54.8,51.1,94,78,55,30.04,29.96,16,6,16,0.00
2014-7-17,77.7,64.6,50.8,62.9,57.4,49.1,96,79,48,30.11,30.03,13,3,13,0.00
2014-7-18,76.5,66.2,54.5,63.8,58.6,53.1,97,78,52,30.17,30.07,13,4,13,0.00
2014-7-19,79.0,67.0,52.8,65.2,59.4,51.4,98,79,53,30.09,29.99,12,2,12,0.01
2014-7-20,80.8,69.7,57.0,67.3,62.5,55.6,98,80,54,30.06,29.99,9,2,9,0.00
2014-7-21,82.5,71.4,57.5,70.1,65.0,56.6,98,82,61,30.10,30.01,13,4,13,0.00
2014-7-22,87.0,76.5,62.5,76.1,70.1,61.1,97,82,65,30.06,29.92,20,8,20,0.00
2014-7-23,77.6,67.6,55.8,75.0,59.8,51.0,94,77,54,30.12,29.93,29,14,29,0.21
2014-7-24,74.8,63.8,53.5,62.1,55.6,49.8,95,77,50,30.15,30.04,18,6,18,0.00
2014-7-25,74.3,64.8,49.3,63.3,57.6,47.6,96,79,63,30.09,29.91,21,7,21,0.00
2014-7-26,80.5,73.2,66.9,73.9,68.2,61.0,95,85,77,29.91,29.73,18,7,18,0.00
2014-7-27,84.8,75.4,65.4,74.4,66.6,58.6,98,76,44,29.85,29.69,27,10,27,0.03
2014-7-28,70.2,63.4,53.5,62.3,54.4,48.8,91,74,48,30.07,29.85,25,9,25,0.00
2014-7-29,78.7,66.9,53.9,61.9,57.2,51.3,92,73,51,30.06,29.98,18,8,18,0.00
2014-7-30,79.3,69.5,58.9,63.7,60.4,55.4,94,75,50,30.03,29.97,16,6,16,0.01
2014-7-31,81.5,71.9,51.1,66.9,61.6,50.0,98,72,53,30.05,30.01,18,6,18,0.03
2014-8-1,82.7,67.9,57.4,67.3,61.8,55.4,97,82,50,30.12,30.02,25,4,25,0.57
2014-8-2,82.5,69.7,55.2,67.3,62.1,54.1,98,79,51,30.15,30.06,12,3,12,0.01
2014-8-3,84.3,72.2,56.7,68.4,63.3,55.3,98,76,49,30.15,30.04,13,3,13,0.00
2014-8-4,84.4,74.6,63.3,71.2,66.0,60.9,96,76,51,30.10,29.99,15,4,15,0.01
2014-8-5,80.7,72.2,65.0,70.7,67.4,63.6,98,86,66,30.03,29.98,12,4,12,0.13
2014-8-6,79.8,69.1,59.5,69.2,63.4,56.4,97,83,58,30.06,29.99,12,4,12,0.00
2014-8-7,78.7,67.7,57.6,65.4,61.3,55.7,97,81,59,30.08,29.99,14,6,14,0.00
2014-8-8,83.0,69.9,60.4,66.0,61.7,57.9,94,77,52,30.04,29.98,18,7,18,0.00
2014-8-9,82.5,70.8,59.1,65.5,61.3,56.8,94,74,50,30.06,29.99,17,8,17,0.00
2014-8-10,81.1,71.1,62.1,72.4,65.6,58.7,90,83,73,30.01,29.91,13,5,13,0.02
2014-8-11,81.3,72.1,66.1,71.7,67.4,62.8,97,86,62,29.91,29.76,18,7,18,0.08
2014-8-12,67.3,64.0,60.8,63.3,60.0,57.3,95,87,76,29.96,29.73,22,9,22,0.03
2014-8-13,81.4,69.0,56.5,65.1,59.4,53.1,93,73,53,30.05,29.95,20,8,20,0.00
2014-8-14,74.0,63.4,49.5,60.8,55.8,46.4,96,78,56,30.07,29.99,15,6,15,0.00
2014-8-15,77.3,61.3,42.4,59.1,51.5,41.1,97,74,41,30.10,29.97,12,3,12,0.00
2014-8-16,80.3,68.0,55.9,71.1,63.9,54.1,95,87,69,29.97,29.89,21,4,21,0.00
2014-8-17,80.0,69.5,62.0,71.1,65.8,60.2,97,89,69,29.93,29.90,14,7,14,0.00
2014-8-18,82.0,70.7,65.0,71.5,66.9,64.3,98,89,65,29.92,29.77,12,3,12,0.00
2014-8-19,81.7,73.5,66.7,73.1,68.8,65.2,97,86,68,29.79,29.70,32,7,32,0.27
2014-8-20,84.5,74.6,63.6,73.2,68.1,61.5,96,81,59,29.94,29.76,20,6,20,0.00
2014-8-21,86.3,74.9,68.9,78.0,71.6,67.5,98,90,74,29.96,29.86,16,5,16,0.05
2014-8-22,84.9,76.8,71.5,75.3,72.7,70.3,97,88,69,29.96,29.83,20,5,20,0.15
2014-8-23,85.0,73.0,67.0,77.6,70.7,66.0,99,93,71,30.00,29.87,24,3,24,0.95
2014-8-24,86.9,75.4,66.2,79.4,72.6,65.5,99,92,76,29.99,29.92,12,4,12,0.01
2014-8-25,91.3,75.4,68.0,81.8,71.8,65.1,99,89,60,30.05,29.94,29,6,29,1.10
2014-8-26,84.4,74.6,65.7,77.2,70.5,64.1,96,88,72,30.10,29.99,25,4,25,0.13
2014-8-27,81.5,72.1,62.8,71.0,66.5,60.6,96,84,64,30.11,30.05,15,5,15,0.00
2014-8-28,81.2,69.8,58.0,69.5,64.0,56.3,96,83,59,30.11,30.00,12,4,12,0.02
2014-8-29,83.5,74.1,68.6,76.9,70.6,66.8,95,89,74,30.01,29.85,15,7,15,0.00
2014-8-30,82.3,75.7,69.8,75.0,70.6,62.8,94,84,72,29.91,29.81,22,12,22,0.04
2014-8-31,84.2,74.5,65.2,74.2,69.7,63.1,98,86,68,29.93,29.83,14,5,14,0.00
2014-9-1,83.3,75.7,70.1,73.6,69.7,66.6,96,83,59,29.87,29.73,21,11,21,0.00
2014-9-2,81.6,73.6,64.2,71.2,66.4,61.5,97,80,53,29.96,29.83,16,6,16,0.55
2014-9-3,83.0,71.4,57.0,70.6,64.4,55.9,98,80,58,30.02,29.94,15,4,15,0.00
2014-9-4,84.9,74.3,66.9,75.5,69.6,64.5,94,86,65,30.08,29.88,23,9,23,0.08
2014-9-5,89.0,77.6,63.8,78.1,72.3,61.1,96,85,67,30.04,29.82,33,10,33,0.66
2014-9-6,72.7,64.0,51.8,61.7,57.6,49.8,95,81,55,30.17,30.02,14,6,14,0.00
2014-9-7,77.8,63.4,49.1,62.4,55.0,47.8,98,77,46,30.21,30.10,8,1,8,0.00
2014-9-8,76.9,63.7,49.7,62.5,56.4,48.6,98,79,50,30.14,29.99,12,3,12,0.01
2014-9-9,80.7,68.0,57.7,69.0,62.9,55.8,95,84,64,30.02,29.84,22,7,22,0.08
2014-9-10,78.0,70.3,59.5,74.9,67.1,55.1,97,90,75,29.85,29.56,29,13,29,1.14
2014-9-11,59.3,53.5,50.3,55.4,49.3,46.1,94,86,80,30.27,29.83,18,8,18,0.00
2014-9-12,60.4,51.3,45.6,54.5,48.4,44.1,95,90,77,30.32,30.21,20,8,20,0.01
2014-9-13,60.6,47.9,39.0,48.1,42.6,37.7,96,83,54,30.38,30.27,18,6,18,0.01
2014-9-14,67.1,51.7,37.3,51.9,44.1,36.0,98,78,45,30.34,30.18,12,2,12,0.00
2014-9-15,56.8,52.4,43.5,54.7,50.9,42.0,98,95,90,30.19,30.06,12,3,12,0.15
2014-9-16,68.0,55.0,45.2,53.4,48.0,43.1,97,80,48,30.22,30.08,9,4,9,0.00
2014-9-17,71.8,54.8,39.1,55.4,48.1,37.9,98,80,50,30.08,29.95,12,2,12,0.00
2014-9-18,72.5,57.4,43.2,55.4,50.3,42.1,98,80,46,30.15,30.03,16,5,16,0.01
2014-9-19,74.7,60.1,46.1,57.1,50.9,45.3,98,75,41,30.17,29.96,18,6,18,0.01
2014-9-20,82.2,68.4,56.6,71.6,63.1,52.1,94,83,66,29.97,29.75,26,10,26,0.20
2014-9-21,70.8,61.3,49.4,68.3,55.0,46.6,93,81,63,30.12,29.71,28,11,28,0.01
2014-9-22,67.8,54.3,43.6,51.0,46.5,41.4,94,77,48,30.29,30.12,18,4,18,0.00
2014-9-23,74.4,56.8,39.8,53.6,47.9,37.9,97,75,43,30.36,30.26,9,2,9,0.00
2014-9-24,76.3,59.4,43.7,55.8,50.0,42.1,98,75,41,30.36,30.24,12,3,12,0.00
2014-9-25,77.5,60.4,46.7,61.7,52.7,45.3,97,79,41,30.30,30.19,9,2,9,0.00
2014-9-26,81.9,64.2,48.4,60.6,53.9,47.0,98,74,37,30.25,30.17,10,3,10,0.00
2014-9-27,81.3,64.4,51.5,63.6,56.4,49.8,98,78,43,30.24,30.12,13,3,13,0.00
2014-9-28,81.7,64.3,47.5,62.4,55.3,46.1,98,77,41,30.15,30.04,12,2,12,0.00
2014-9-29,83.0,65.7,47.8,62.0,56.1,46.7,98,75,44,30.04,29.90,21,5,21,0.00
2014-9-30,63.2,56.1,47.0,54.8,50.2,44.1,90,81,66,30.02,29.96,18,10,18,0.00
2014-10-1,76.0,59.2,41.1,59.7,51.7,39.8,97,78,56,30.02,29.87,15,7,15,0.00
2014-10-2,74.4,66.1,61.0,67.9,63.3,57.1,98,91,76,29.88,29.61,16,5,16,0.78
2014-10-3,65.3,55.9,44.7,64.7,50.4,29.5,98,82,55,29.83,29.46,28,14,28,0.45
2014-10-4,47.1,42.1,35.8,37.5,33.8,29.0,91,73,55,29.82,29.74,28,13,28,0.02
2014-10-5,54.8,48.2,39.0,44.4,38.3,33.8,84,69,50,29.81,29.65,24,8,24,0.00
2014-10-6,62.3,53.5,45.0,51.4,41.9,36.4,91,67,42,29.71,29.60,26,9,26,0.00
2014-10-7,68.8,56.5,43.7,56.6,47.1,37.9,93,72,47,29.88,29.64,23,9,23,0.04
2014-10-8,65.6,55.3,45.7,45.4,39.7,32.9,84,59,33,30.06,29.88,21,8,21,0.00
2014-10-9,65.2,55.0,43.2,48.3,42.8,38.1,89,65,40,30.14,30.01,13,4,13,0.00
2014-10-10,59.2,49.4,39.1,44.0,40.6,36.7,95,74,51,30.18,30.10,16,6,16,0.00
2014-10-11,61.3,46.2,34.4,43.3,36.1,32.1,94,72,37,30.26,30.15,14,4,14,0.00
2014-10-12,63.1,50.4,35.1,55.8,44.7,32.7,97,82,58,30.16,29.88,18,6,18,0.08
2014-10-13,70.5,63.2,56.6,67.2,61.7,55.8,99,95,83,29.88,29.53,23,8,23,0.46
2014-10-14,65.2,60.3,52.5,62.2,58.1,50.9,98,93,82,29.62,29.44,21,8,21,0.12
2014-10-15,55.6,53.1,51.8,54.8,52.2,50.7,98,97,96,29.82,29.62,15,7,15,0.14
2014-10-16,57.3,53.8,50.5,53.9,51.8,48.6,97,93,85,29.86,29.68,15,7,15,0.00
2014-10-17,60.8,54.4,50.5,52.2,49.2,47.4,96,83,71,29.87,29.58,23,12,23,0.00
2014-10-18,50.9,46.4,37.8,48.9,42.6,34.6,94,87,76,30.22,29.87,20,7,20,0.02
2014-10-19,56.4,44.7,29.0,45.3,39.1,27.6,97,82,61,30.26,29.96,17,6,17,0.00
2014-10-20,65.5,54.9,49.1,53.2,48.1,44.8,90,79,56,29.99,29.83,18,9,18,0.00
2014-10-21,54.4,49.4,40.9,47.6,43.2,36.8,89,79,65,30.25,29.98,20,8,20,0.00
2014-10-22,58.9,43.6,31.0,42.6,36.4,29.5,97,78,45,30.38,30.25,12,3,12,0.00
2014-10-23,60.6,46.5,30.3,46.4,40.0,28.8,97,80,54,30.28,30.08,16,4,16,0.01
2014-10-24,68.8,57.1,48.4,54.9,48.9,44.7,91,75,47,30.09,29.93,13,4,13,0.01
2014-10-25,73.6,61.2,52.1,57.9,47.0,34.1,97,65,27,29.97,29.89,20,8,20,0.00
2014-10-26,67.3,53.2,41.8,38.1,34.0,28.6,69,50,24,30.05,29.86,12,3,12,0.00
2014-10-27,77.0,64.6,47.5,62.8,53.4,36.6,86,68,57,29.86,29.59,31,11,31,0.00
2014-10-28,67.7,56.4,46.2,59.3,45.2,37.3,95,67,47,29.99,29.66,28,12,28,0.56
2014-10-29,47.0,43.4,36.4,37.8,35.7,32.9,91,75,63,30.16,29.99,17,7,17,0.00
2014-10-30,51.5,41.4,29.5,39.2,35.3,27.7,95,80,61,30.18,30.07,14,3,14,0.00
2014-10-31,45.1,39.0,32.0,40.4,31.9,27.0,92,76,58,30.33,30.02,38,19,38,0.00
2014-11-1,43.7,36.4,28.3,31.4,28.3,23.3,88,73,57,30.45,30.32,24,10,24,0.00
2014-11-2,51.1,39.0,23.4,31.9,26.7,20.4,92,65,38,30.47,30.22,20,8,20,0.00
2014-11-3,64.3,54.1,42.9,46.9,36.5,28.3,62,52,41,30.22,29.98,26,16,26,0.00
2014-11-4,56.7,49.1,42.2,50.2,42.9,37.6,95,80,50,30.12,29.93,25,14,25,0.08
2014-11-5,62.7,49.2,35.4,46.4,39.9,33.0,93,72,43,30.18,29.89,22,9,22,0.01
2014-11-6,48.4,43.2,37.9,46.7,37.1,28.3,95,79,66,30.23,29.79,30,16,30,0.19
2014-11-7,43.1,39.0,35.8,34.1,30.5,27.1,83,71,61,30.23,29.85,20,6,20,0.00
2014-11-8,46.3,42.5,35.9,40.4,33.7,28.2,88,71,56,30.00,29.75,27,11,27,0.00
2014-11-9,50.9,41.5,31.6,37.7,32.4,26.0,83,70,56,29.99,29.80,24,10,24,0.00
2014-11-10,62.7,51.7,40.0,46.8,42.3,36.0,89,71,55,29.84,29.56,30,14,30,0.00
2014-11-11,56.7,42.3,32.2,46.0,36.9,25.1,93,82,64,30.17,29.60,26,13,26,0.32
2014-11-12,32.1,27.7,24.7,25.1,19.8,15.6,78,72,65,30.35,30.17,20,11,20,0.00
2014-11-13,28.5,25.6,22.5,21.8,18.6,16.1,87,75,63,30.37,30.32,17,9,17,0.00
2014-11-14,27.8,23.8,18.5,20.1,16.3,14.0,87,73,62,30.42,30.36,12,5,12,0.00
2014-11-15,30.5,25.3,17.5,23.4,17.7,13.1,85,73,59,30.44,30.25,10,3,10,0.00
2014-11-16,31.7,28.9,25.3,27.2,25.0,19.1,91,85,79,30.25,29.94,15,7,15,0.00
2014-11-17,25.0,16.6,12.3,19.0,7.9,2.4,82,69,51,30.08,29.90,31,15,31,0.00
2014-11-18,19.4,15.0,10.3,8.7,6.3,3.4,81,69,54,30.22,30.07,29,15,29,0.00
2014-11-19,33.8,24.7,15.7,23.3,16.0,8.9,78,69,62,30.15,29.83,29,15,29,0.00
2014-11-20,30.4,22.2,15.1,15.8,11.2,6.6,81,64,41,30.38,30.08,25,12,25,0.00
2014-11-21,34.2,23.3,8.3,20.7,10.3,3.0,83,59,34,30.53,30.24,18,8,18,0.00
2014-11-22,53.0,44.3,32.5,48.5,40.1,20.0,93,86,55,30.24,29.88,22,14,22,0.21
2014-11-23,52.4,49.4,45.8,49.9,47.1,42.6,98,92,82,29.88,29.11,23,10,23,0.84
2014-11-24,49.2,36.6,27.9,48.7,34.8,23.6,98,93,83,29.88,29.09,38,18,38,0.59
2014-11-25,28.3,24.2,21.0,24.4,19.9,16.4,87,83,79,30.25,29.88,49,9,49,0.00
2014-11-26,28.1,25.1,19.4,23.2,21.1,16.5,92,85,79,30.23,30.14,16,5,16,0.00
2014-11-27,27.1,23.9,17.7,24.5,19.3,12.5,90,82,71,30.46,30.23,20,10,20,0.00
2014-11-28,33.7,26.5,17.3,29.6,22.2,13.8,90,84,69,30.44,29.93,22,10,22,0.00
2014-11-29,52.3,42.3,29.8,47.1,38.8,27.1,95,87,77,29.93,29.66,26,12,26,0.00
2014-11-30,57.8,44.6,30.0,54.9,42.3,24.8,97,92,81,30.29,29.67,24,13,24,0.00
2014-12-1,29.9,23.7,20.7,24.8,14.5,4.1,85,69,43,30.66,30.29,20,12,20,0.00
2014-12-2,31.5,25.9,16.7,28.7,22.6,13.7,94,87,82,30.57,30.14,20,8,20,0.00
2014-12-3,38.4,30.2,25.1,26.7,22.7,18.3,90,75,51,30.42,30.14,20,8,20,0.00
2014-12-4,34.4,29.8,22.7,28.2,23.6,18.3,86,78,67,30.44,30.28,13,6,13,0.00
2014-12-5,40.1,35.4,32.4,36.2,32.8,28.2,94,90,84,30.29,30.17,10,4,10,0.00
2014-12-6,40.5,35.7,26.7,35.6,31.6,24.1,94,85,71,30.65,30.22,24,11,24,0.00
2014-12-7,36.6,30.2,23.9,29.1,25.8,20.6,92,84,72,30.68,30.33,16,8,16,0.00
2014-12-8,37.7,34.0,29.7,36.9,32.3,27.7,97,93,90,30.33,30.04,18,8,18,0.18
2014-12-9,38.8,34.8,31.9,36.0,32.6,28.8,96,92,87,30.40,30.12,18,11,18,0.00
2014-12-10,35.1,32.3,30.4,30.9,28.4,26.3,88,85,82,30.41,30.28,16,9,16,0.00
2014-12-11,30.6,27.5,24.3,26.4,24.0,21.8,91,86,80,30.34,30.26,13,7,13,0.00
2014-12-12,35.6,29.6,22.7,33.5,28.0,20.7,96,94,90,30.39,30.29,16,6,16,0.00
2014-12-13,48.6,42.8,35.5,45.1,40.0,33.1,92,90,86,30.29,30.11,12,6,12,0.00
2014-12-14,50.4,46.3,43.4,47.7,44.7,42.1,98,94,89,30.14,30.02,18,8,18,0.00
2014-12-15,45.5,43.7,40.8,45.0,43.2,40.0,98,98,96,30.03,29.66,21,11,21,0.15
2014-12-16,45.5,39.0,29.8,44.4,37.4,26.1,98,94,85,30.18,29.65,24,13,24,0.04
2014-12-17,29.8,25.9,24.0,26.2,21.4,19.5,88,83,78,30.35,30.18,20,9,20,0.00
2014-12-18,27.8,24.7,20.7,22.0,20.0,17.4,88,82,77,30.36,30.27,7,3,7,0.00
2014-12-19,32.1,28.7,25.2,27.5,24.8,21.3,90,85,80,30.37,30.30,10,4,10,0.00
2014-12-20,33.2,31.1,29.1,29.1,27.7,26.1,91,87,80,30.33,30.27,10,3,10,0.00
2014-12-21,38.2,32.7,30.3,33.1,29.5,27.8,92,88,80,30.29,30.05,16,9,16,0.00
2014-12-22,42.9,35.8,29.7,42.1,34.2,27.7,97,94,90,30.05,29.58,20,11,20,0.41
2014-12-23,47.8,44.3,39.6,46.6,41.7,38.1,97,91,78,29.78,29.55,21,8,21,0.09
2014-12-24,41.3,37.7,35.1,39.7,36.4,33.6,97,95,90,29.72,29.51,18,7,18,0.35
2014-12-25,43.2,37.0,33.5,37.8,33.5,30.3,93,87,79,30.07,29.71,22,12,22,0.00
2014-12-26,52.2,43.2,35.1,45.2,39.3,32.6,95,86,74,30.09,30.02,22,11,22,0.00
2014-12-27,48.2,40.4,30.7,47.0,37.9,27.5,97,91,84,30.15,29.99,24,14,24,0.07
2014-12-28,33.2,27.7,22.7,27.5,21.9,16.4,89,79,50,30.29,30.13,16,5,16,0.00
2014-12-29,33.7,26.8,21.9,30.0,22.2,17.9,89,83,74,30.51,30.28,14,6,14,0.00
2014-12-30,25.2,17.2,11.8,20.8,8.5,1.9,83,69,47,30.71,30.51,16,10,16,0.00
2014-12-31,20.1,13.2,5.3,8.4,3.8,-1.3,78,66,51,30.67,30.26,22,12,22,0.00
2015-1-1,29.2,22.3,14.0,18.5,13.1,7.7,77,68,57,30.26,30.07,25,13,25,0.00
2015-1-2,35.5,27.5,18.3,26.2,21.1,14.2,86,77,62,30.38,30.17,12,3,12,0.00